Home > Weather > La-Chaux-de-Fonds > Past weeks

Flag for Switzerland Weather for the Past 2 Weeks in La-Chaux-de-Fonds, Neuchâtel, Switzerland

Now
59 °F

Passing clouds.


Feels Like: 59 °F
Forecast: 41 / 60 °F
Wind: 5 mph from Southeast

Location: Les Eplatures

Current Time: May 6, 2016 at 12:02:54 PM

Latest Report: May 6, 2016 at 11:20 AM


Visibility: N/A

Pressure: 30.04 "Hg (26.68 "Hg at 1000m altitude)

Humidity: 39%

Dew Point: 34 °F

Location of La-Chaux-de-FondsLocation

Historic Weather in La-Chaux-de-Fonds — Graph

°F

La-Chaux-de-Fonds Temperature Yesterday

Maximum temperature yesterday: 59 °F (at 3:20 PM)
Minimum temperature yesterday: 39 °F (at 1:50 AM)
Average temperature yesterday: 48 °F

High & Low Weather Summary for the Past Weeks

 TemperatureHumidityPressure
High64 °F (Apr 21, 12:50 PM)100% (Apr 22, 11:50 PM)30.30 "Hg (Apr 22, 11:50 PM)
Low21 °F (Apr 28, 5:20 AM)31% (May 5, 2:50 PM)29.65 "Hg (Apr 26, 3:50 PM)
Average40 °F79%30.00 "Hg
* Reported Apr 21 10:20 AM — May 6 10:50 AM, La-Chaux-de-Fonds, Weather by CustomWeather, © 2016

Note: Actual official high and low records may vary slightly from our data, if they occured in-between our weather recording intervals... More about our weather records

Advertising

La-Chaux-de-Fonds Weather History for the Previous 24 Hours

Scroll right to see more
 ConditionsComfort  
Time TempWeatherWind HumidityBarometerVisibility
10:50 AM
Fri, May 6
59 °FPassing clouds.5 mph42%30.04 "HgN/A
10:20 AM57 °FPassing clouds.5 mph39%30.04 "HgN/A
9:50 AM55 °FPassing clouds.5 mph44%30.04 "HgN/A
9:20 AM55 °FSunny.2 mph44%30.04 "Hg10 mi
8:50 AM54 °FSunny.1 mph54%30.04 "Hg10 mi
8:20 AM48 °FSunny.1 mph71%30.04 "Hg10 mi
7:50 AM43 °FClear.No wind81%30.04 "Hg10 mi
7:20 AM41 °FQuite cool.1 mph81%30.04 "HgN/A
6:50 AM37 °FClear.No wind87%30.04 "HgN/A
6:20 AM37 °FChilly.No wind87%30.04 "HgN/A
5:50 AM39 °FClear.1 mph81%30.04 "HgN/A
5:20 AM39 °FChilly.No wind81%30.04 "HgN/A
4:50 AM39 °FClear.1 mph81%30.04 "Hg10 mi
4:20 AM39 °FClear.1 mph81%30.04 "HgN/A
3:50 AM39 °FClear.No wind81%30.04 "Hg10 mi
3:20 AM39 °FClear.1 mph81%30.04 "Hg10 mi
2:50 AM39 °FClear.1 mph81%30.07 "Hg10 mi
2:20 AM41 °FClear.1 mph81%30.07 "Hg10 mi
1:50 AM41 °FClear.1 mph81%30.07 "Hg10 mi
1:20 AM43 °FClear.2 mph76%30.07 "Hg10 mi
12:50 AM45 °FClear.2 mph71%30.07 "Hg10 mi
12:20 AM43 °FClear.2 mph71%30.04 "Hg10 mi
11:50 PM
Thu, May 5
46 °FClear.2 mph66%30.04 "Hg10 mi
11:20 PM46 °FClear.2 mph66%30.07 "Hg10 mi
10:50 PM50 °FClear.2 mph54%30.07 "Hg10 mi
10:20 PM46 °FSunny.2 mph66%30.07 "Hg10 mi
9:50 PM48 °FPassing clouds.5 mph62%30.07 "HgN/A
9:20 PM48 °FSunny.2 mph62%30.07 "Hg10 mi
8:50 PM50 °FSunny.2 mph58%30.04 "Hg10 mi
8:20 PM55 °FPassing clouds.3 mph44%30.04 "HgN/A
7:50 PM55 °FPassing clouds.6 mph47%30.04 "HgN/A
7:20 PM57 °FPassing clouds.5 mph39%30.04 "HgN/A
6:50 PM57 °FPassing clouds.6 mph39%30.04 "HgN/A
6:20 PM57 °FPassing clouds.7 mph39%30.07 "HgN/A
5:50 PM57 °FPassing clouds.7 mph39%30.07 "HgN/A
5:20 PM59 °FPassing clouds.6 mph39%30.07 "HgN/A
4:50 PM57 °FPassing clouds.6 mph33%30.07 "HgN/A
4:20 PM57 °FPassing clouds.5 mph31%30.07 "HgN/A
3:50 PM57 °FPassing clouds.7 mph31%30.07 "HgN/A
3:20 PM59 °FPassing clouds.7 mph36%30.07 "HgN/A
2:50 PM57 °FPassing clouds.8 mph31%30.07 "HgN/A
2:20 PM55 °FPassing clouds.8 mph33%30.07 "HgN/A
1:50 PM55 °FPassing clouds.7 mph33%30.07 "HgN/A
1:20 PM54 °FPassing clouds.14 mph33%30.07 "HgN/A
12:50 PM52 °FPassing clouds.9 mph35%30.09 "HgN/A
12:20 PM52 °FPassing clouds.7 mph35%30.09 "HgN/A
Weather by CustomWeather, © 2016

See weather overviewHow to use our weather pages